Seneca, SC

6:17 PM EST on December 06, 2016 (GMT -0500)
Oconee County Regional

Weather History for KCEU - February, 2013

Change the Weather History Date:

Sunday, February 10, 2013

  Actual Average Record
Temperature  
Mean Temperature 51 °F -  
Max Temperature 59 °F 52 °F 80 °F (1938)
Min Temperature 43 °F 28 °F 12 °F (1934)
Degree Days  
Heating Degree Days 14    
Growing Degree Days 1 (Base 50)    
Moisture  
Dew Point 36 °F    
Average Humidity 63    
Maximum Humidity 87    
Minimum Humidity 29    
Precipitation  
Precipitation 0.70 in - - ()
Sea Level Pressure  
Sea Level Pressure 30.28 in    
Wind  
Wind Speed 4 mph (NE)    
Max Wind Speed 9 mph    
Max Gust Speed -    
Visibility 8 miles    
Events Rain    
Averages and records for this station are not official NWS values.
T = Trace of Precipitation, MM = Missing Value Source: NWS Daily Summary

Daily Weather History Graph

Daily Weather History Graph

Search for Another Location

Airport or City:

Trip Planner

Search our weather history database for the weather conditions in past years. The results will help you decide how hot, cold, wet, or windy it might be!

Date:

Astronomy

Feb. 10, 2013 Rise Set
Actual Time 7:21 AM EST 6:10 PM EST
Civil Twilight 6:55 AM EST 6:36 PM EST
Nautical Twilight 6:26 AM EST 7:05 PM EST
Astronomical Twilight 5:56 AM EST 7:35 PM EST
Moon 7:14 AM EST (2/10) 6:55 PM EST (2/10)
Length of Visible Light 11h 40m
Length of Day
10h 48m
New Moon, 0% of the Moon is Illuminated
Feb 10
New Moon
Feb 17
First Quarter
Feb 25
Full
Mar 4
Last Quarter
Mar 11
New

Hourly Weather History & Observations

Time (EST) Temp. Windchill Dew Point Humidity Pressure Visibility Wind Dir Wind Speed Gust Speed Precip Events Conditions
12:54 AM 43.0 °F 40.3 °F 30.9 °F 62% 30.31 in 10.0 mi NNW 4.6 mph - N/A   Clear
1:54 AM 44.1 °F - 30.9 °F 60% 30.33 in 10.0 mi Calm Calm - N/A   Clear
2:54 AM 43.0 °F - 28.9 °F 58% 30.33 in 10.0 mi Calm Calm - N/A   Clear
3:54 AM 43.0 °F 41.3 °F 28.9 °F 58% 30.31 in 10.0 mi NNE 3.5 mph - N/A   Clear
4:54 AM 44.1 °F - 28.0 °F 53% 30.34 in 10.0 mi Calm Calm - N/A   Clear
5:54 AM 44.1 °F 41.5 °F 28.9 °F 55% 30.35 in 10.0 mi NE 4.6 mph - N/A   Clear
6:54 AM 44.1 °F 41.5 °F 26.1 °F 49% 30.36 in 10.0 mi NE 4.6 mph - N/A   Clear
7:54 AM 44.1 °F 42.5 °F 25.0 °F 47% 30.38 in 10.0 mi NE 3.5 mph - N/A   Clear
8:54 AM 46.0 °F 43.1 °F 25.0 °F 44% 30.37 in 10.0 mi ENE 5.8 mph - N/A   Clear
9:54 AM 48.0 °F - 24.1 °F 39% 30.40 in 10.0 mi ENE 5.8 mph - N/A   Clear
10:54 AM 51.1 °F - 25.0 °F 36% 30.40 in 10.0 mi East 4.6 mph - N/A   Clear
11:54 AM 54.0 °F - 25.0 °F 33% 30.36 in 10.0 mi ESE 9.2 mph - N/A   Clear
12:54 PM 57.0 °F - 25.0 °F 29% 30.31 in 10.0 mi ESE 9.2 mph - N/A   Overcast
1:54 PM 57.9 °F - 28.9 °F 33% 30.26 in 10.0 mi East 6.9 mph - N/A   Scattered Clouds
2:54 PM 59.0 °F - 34.0 °F 39% 30.24 in 10.0 mi East 3.5 mph - N/A   Clear
3:54 PM 57.9 °F - 37.0 °F 46% 30.22 in 10.0 mi East 5.8 mph - N/A   Mostly Cloudy
4:54 PM 57.0 °F - 36.0 °F 45% 30.19 in 10.0 mi East 8.1 mph - N/A   Overcast
5:54 PM 52.0 °F - 44.1 °F 74% 30.19 in 7.0 mi NNE 5.8 mph - 0.03 in Rain Light Rain
6:54 PM 50.0 °F - 45.0 °F 83% 30.22 in 4.0 mi North 6.9 mph - 0.10 in Rain Rain
7:54 PM 48.0 °F - 44.1 °F 86% 30.25 in 4.0 mi North 6.9 mph - 0.18 in Rain Rain
8:22 PM 48.2 °F - 44.6 °F 87% 30.27 in 3.0 mi North 8.1 mph - 0.10 in Rain Heavy Rain
8:54 PM 48.0 °F - 44.1 °F 86% 30.26 in 5.0 mi NE 6.9 mph - 0.20 in Rain Rain
9:03 PM 48.2 °F - 44.6 °F 87% 30.25 in 5.0 mi NNE 8.1 mph - 0.02 in Rain Light Rain
9:54 PM 48.0 °F - 44.1 °F 86% 30.25 in 4.0 mi North 3.5 mph - 0.08 in Rain Rain
10:01 PM 48.2 °F - 44.6 °F 87% 30.25 in 4.0 mi Calm Calm - 0.01 in Rain Rain
10:13 PM 48.2 °F - 44.6 °F 87% 30.24 in 4.0 mi NNE 3.5 mph - 0.02 in Rain Light Rain
10:54 PM 48.9 °F - 45.0 °F 86% 30.22 in 5.0 mi NE 5.8 mph - 0.06 in Rain Light Rain
11:12 PM 48.2 °F - 44.6 °F 87% 30.19 in 4.0 mi East 4.6 mph - 0.01 in Rain Light Rain
11:29 PM 48.2 °F - 44.6 °F 87% 30.17 in 4.0 mi East 3.5 mph - 0.03 in Rain Light Rain
11:54 PM 48.9 °F - 45.0 °F 86% 30.17 in 5.0 mi ENE 4.6 mph - 0.05 in Rain Light Rain